Change the Weather History Date:

Monday, April 21, 2014

  Actual Average Record
Temperature  
Mean Temperature 50 °F 46 °F  
Max Temperature 71 °F 60 °F 78 °F (1980)
Min Temperature 28 °F 33 °F 16 °F (1982)
Degree Days  
Heating Degree Days 15 19  
Month to date heating degree days 418 451  
Since 1 July heating degree days 6727 7155  
Cooling Degree Days 0 0  
Month to date cooling degree days 0 0  
Year to date cooling degree days 0 0  
Moisture  
Dew Point 21 °F    
Average Humidity 42    
Maximum Humidity 69    
Minimum Humidity 14    
Precipitation  
Precipitation T in 0.04 in 0.23 in (1985)
Month to date precipitation 0.18 0.72  
Year to date precipitation 2.47 2.93  
Sea Level Pressure  
Sea Level Pressure 30.09 in    
Wind  
Wind Speed 5 mph (SSW)    
Max Wind Speed 21 mph    
Max Gust Speed 28 mph    
Visibility 10 miles    
Events      
T = Trace of Precipitation, MM = Missing Value Source: NWS Daily Summary

Daily Weather History Graph

Daily Weather History Graph

Search for Another Location

Airport or City:

Trip Planner

Search our weather history database for the weather conditions in past years. The results will help you decide how hot, cold, wet, or windy it might be!

Date:

Astronomy

Apr. 21, 2014 Rise Set
Actual Time 6:35 AM MDT 8:18 PM MDT
Civil Twilight 6:05 AM MDT 8:49 PM MDT
Nautical Twilight 5:28 AM MDT 9:26 PM MDT
Astronomical Twilight 4:49 AM MDT 10:06 PM MDT
Moon 1:54 AM MDT (4/21) 12:04 PM MDT (4/21)
Length of Visible Light 14h 43m
Length of Day
13h 42m
Waning Gibbous, 57% of the Moon is Illuminated
Apr 21
Waning Gibbous
Apr 22
Last Quarter
Apr 29
New
May 6
First Quarter
May 14
Full

Hourly Weather History & Observations

Time (MDT) Temp. Windchill Dew Point Humidity Pressure Visibility Wind Dir Wind Speed Gust Speed Precip Events Conditions
12:53 AM 45.0 °F 40.6 °F 16.0 °F 31% 30.20 in 10.0 mi South 8.1 mph - N/A   Clear
1:53 AM 39.9 °F - 17.1 °F 40% 30.22 in 10.0 mi Calm Calm - N/A   Clear
2:53 AM 37.0 °F - 19.0 °F 48% 30.22 in 10.0 mi Calm Calm - N/A   Clear
3:53 AM 37.0 °F - 21.9 °F 54% 30.22 in 10.0 mi Calm Calm - N/A   Clear
4:53 AM 32.0 °F 25.6 °F 19.0 °F 59% 30.24 in 10.0 mi North 6.9 mph - N/A   Clear
5:53 AM 28.9 °F 22.8 °F 19.0 °F 67% 30.25 in 10.0 mi North 5.8 mph - N/A   Clear
6:53 AM 28.9 °F 22.8 °F 19.0 °F 67% 30.26 in 10.0 mi North 5.8 mph - N/A   Clear
7:53 AM 35.1 °F 31.0 °F 23.0 °F 61% 30.25 in 10.0 mi North 4.6 mph - N/A   Partly Cloudy
8:53 AM 45.0 °F 41.8 °F 25.0 °F 46% 30.23 in 10.0 mi North 5.8 mph - N/A   Partly Cloudy
9:53 AM 52.0 °F - 23.0 °F 32% 30.21 in 10.0 mi NNE 5.8 mph - N/A   Scattered Clouds
10:53 AM 55.9 °F - 19.9 °F 25% 30.19 in 10.0 mi Variable 3.5 mph - N/A   Scattered Clouds
11:53 AM 60.1 °F - 19.9 °F 21% 30.16 in 10.0 mi Variable 3.5 mph - N/A   Clear
12:53 PM 62.1 °F - 18.0 °F 18% 30.13 in 10.0 mi Calm Calm - N/A   Clear
1:53 PM 64.9 °F - 17.1 °F 16% 30.09 in 10.0 mi Calm Calm - N/A   Scattered Clouds
2:53 PM 68.0 °F - 19.0 °F 15% 30.05 in 10.0 mi WSW 8.1 mph - N/A   Scattered Clouds
3:53 PM 69.1 °F - 17.1 °F 14% 30.01 in 10.0 mi SSW 8.1 mph 19.6 mph N/A   Partly Cloudy
4:53 PM 70.0 °F - 17.1 °F 13% 29.99 in 10.0 mi SSE 4.6 mph - N/A   Partly Cloudy
5:53 PM 70.0 °F - 19.9 °F 15% 29.96 in 10.0 mi SSW 12.7 mph 17.3 mph N/A   Partly Cloudy
6:53 PM 68.0 °F - 25.0 °F 20% 29.96 in 10.0 mi SW 6.9 mph - N/A   Scattered Clouds
7:53 PM 66.0 °F - 24.1 °F 20% 29.93 in 10.0 mi Calm Calm - N/A   Clear
8:53 PM 64.9 °F - 25.0 °F 22% 29.89 in 10.0 mi ESE 3.5 mph - N/A   Scattered Clouds
9:53 PM 61.0 °F - 28.9 °F 30% 29.88 in 10.0 mi SSE 5.8 mph - N/A   Clear
10:53 PM 57.9 °F - 30.9 °F 36% 29.87 in 10.0 mi SSW 3.5 mph - N/A   Mostly Cloudy
11:53 PM 62.1 °F - 28.0 °F 28% 29.86 in 10.0 mi SW 13.8 mph - N/A   Overcast